When you browse on this site, cookies collect data to enhance your experience and personalize the content and advertising you see.
Visit our Privacy Policy to learn more. By continuing to use the site, you agree to this use of cookies and data.
  • în România
  • Lista ţărilor
  • Pe 7 zile
  • Temperatura apei
  • Hartă satelitară
  • Meteo pe hartă
  • Widget-uri
  • user-avatar
    Intrare

    Meteo pe oră la Dęblin

    Astăzi, 20 Mai, Luni

    Timp Temperatura Precipitaţii Vânt Presiune Umiditate
    00:00 +17°C° 0 mm 3 m/s 745 mmHg 96%
    01:00 +16°C° 0 mm 3 m/s 745 mmHg 96%
    02:00 +16°C° 0 mm 3 m/s 745 mmHg 96%
    03:00 +15°C° 0 mm 4 m/s 744 mmHg 97%
    04:00 +15°C° 0 mm 4 m/s 744 mmHg 97%
    05:00 +17°C° 0 mm 4 m/s 744 mmHg 95%
    06:00 +17°C° 0 mm 5 m/s 744 mmHg 92%
    07:00 +19°C° 0 mm 6 m/s 744 mmHg 89%
    08:00 +20°C° 0 mm 6 m/s 744 mmHg 86%
    09:00 +21°C° 0 mm 6 m/s 744 mmHg 83%
    10:00 +22°C° 0 mm 5 m/s 744 mmHg 80%
    11:00 +23°C° 0.2 mm 5 m/s 744 mmHg 75%
    12:00 +24°C° 0.2 mm 6 m/s 744 mmHg 71%
    13:00 +26°C° 0.2 mm 6 m/s 743 mmHg 66%
    14:00 +26°C° 0.3 mm 5 m/s 743 mmHg 67%
    15:00 +26°C° 0.3 mm 5 m/s 743 mmHg 68%
    16:00 +25°C° 0.3 mm 5 m/s 743 mmHg 68%
    17:00 +23°C° 0.2 mm 4 m/s 743 mmHg 75%
    18:00 +21°C° 0.2 mm 4 m/s 743 mmHg 81%
    19:00 +19°C° 0.2 mm 3 m/s 743 mmHg 87%
    20:00 +18°C° 0.3 mm 3 m/s 743 mmHg 90%
    21:00 +18°C° 0.3 mm 3 m/s 743 mmHg 92%
    22:00 +17°C° 0.3 mm 3 m/s 743 mmHg 95%
    23:00 +16°C° 0 mm 3 m/s 743 mmHg 95%

    Mâine, 21 Mai, Marţi

    Timp Temperatura Precipitaţii Vânt Presiune Umiditate
    00:00 +16°C° 0 mm 2 m/s 743 mmHg 96%
    01:00 +16°C° 0 mm 2 m/s 743 mmHg 96%
    02:00 +16°C° 0.1 mm 2 m/s 743 mmHg 96%
    03:00 +16°C° 0.1 mm 2 m/s 743 mmHg 95%
    04:00 +16°C° 0.1 mm 2 m/s 743 mmHg 95%
    05:00 +16°C° 0.2 mm 2 m/s 743 mmHg 92%
    06:00 +17°C° 0.2 mm 2 m/s 743 mmHg 90%
    07:00 +18°C° 0.2 mm 2 m/s 743 mmHg 87%
    08:00 +19°C° 0.2 mm 2 m/s 742 mmHg 86%
    09:00 +19°C° 0.2 mm 3 m/s 742 mmHg 84%
    10:00 +20°C° 0.2 mm 3 m/s 742 mmHg 83%
    11:00 +20°C° 1.5 mm 4 m/s 742 mmHg 81%
    12:00 +20°C° 1.5 mm 5 m/s 741 mmHg 79%
    13:00 +21°C° 1.5 mm 5 m/s 741 mmHg 77%
    14:00 +21°C° 1.7 mm 5 m/s 741 mmHg 77%
    15:00 +20°C° 1.7 mm 5 m/s 741 mmHg 77%
    16:00 +20°C° 1.7 mm 4 m/s 741 mmHg 77%
    17:00 +19°C° 0.7 mm 5 m/s 741 mmHg 81%
    18:00 +17°C° 0.7 mm 5 m/s 741 mmHg 85%
    19:00 +15°C° 0.7 mm 5 m/s 741 mmHg 89%
    20:00 +15°C° 0.3 mm 6 m/s 742 mmHg 90%
    21:00 +15°C° 0.3 mm 6 m/s 742 mmHg 91%
    22:00 +14°C° 0.3 mm 7 m/s 742 mmHg 91%
    23:00 +14°C° 0.4 mm 6 m/s 742 mmHg 92%

    Poimâine, 22 Mai, Miercuri

    Timp Temperatura Precipitaţii Vânt Presiune Umiditate
    00:00 +14°C° 0.4 mm 6 m/s 742 mmHg 92%
    01:00 +14°C° 0.4 mm 6 m/s 743 mmHg 93%
    02:00 +14°C° 0.1 mm 5 m/s 743 mmHg 93%
    03:00 +13°C° 0.1 mm 5 m/s 743 mmHg 94%
    04:00 +13°C° 0.1 mm 4 m/s 743 mmHg 94%
    05:00 +14°C° 0.1 mm 4 m/s 743 mmHg 93%
    06:00 +14°C° 0.1 mm 4 m/s 743 mmHg 92%
    07:00 +14°C° 0.1 mm 4 m/s 743 mmHg 91%
    08:00 +16°C° 0.3 mm 5 m/s 743 mmHg 86%
    09:00 +17°C° 0.3 mm 5 m/s 743 mmHg 82%
    10:00 +19°C° 0.3 mm 5 m/s 744 mmHg 78%
    11:00 +19°C° 0.9 mm 5 m/s 744 mmHg 78%
    12:00 +19°C° 0.9 mm 6 m/s 744 mmHg 78%
    13:00 +19°C° 0.9 mm 6 m/s 744 mmHg 78%
    14:00 +19°C° 0.3 mm 6 m/s 744 mmHg 77%
    15:00 +19°C° 0.3 mm 5 m/s 743 mmHg 76%
    16:00 +19°C° 0.3 mm 5 m/s 743 mmHg 75%
    17:00 +17°C° 0.2 mm 5 m/s 743 mmHg 80%
    18:00 +17°C° 0.2 mm 4 m/s 743 mmHg 84%
    19:00 +16°C° 0.2 mm 3 m/s 743 mmHg 89%
    20:00 +16°C° 0.2 mm 3 m/s 744 mmHg 91%
    21:00 +16°C° 0.2 mm 3 m/s 744 mmHg 92%
    22:00 +14°C° 0.2 mm 4 m/s 744 mmHg 94%
    23:00 +14°C° 0 mm 3 m/s 744 mmHg 95%

    23 Mai, Joi

    Timp Temperatura Precipitaţii Vânt Presiune Umiditate
    00:00 +13°C° 0 mm 3 m/s 744 mmHg 95%
    01:00 +12°C° 0 mm 3 m/s 744 mmHg 96%
    02:00 +12°C° 0 mm 3 m/s 744 mmHg 96%
    03:00 +11°C° 0 mm 3 m/s 744 mmHg 96%
    04:00 +11°C° 0 mm 3 m/s 744 mmHg 97%
    05:00 +12°C° 0 mm 3 m/s 744 mmHg 94%
    06:00 +14°C° 0 mm 2 m/s 745 mmHg 91%
    07:00 +15°C° 0 mm 2 m/s 745 mmHg 88%
    08:00 +16°C° 0 mm 2 m/s 745 mmHg 85%
    09:00 +17°C° 0 mm 2 m/s 745 mmHg 82%
    10:00 +19°C° 0 mm 1 m/s 746 mmHg 79%
    11:00 +20°C° 0.2 mm 1 m/s 746 mmHg 77%
    12:00 +20°C° 0.2 mm 1 m/s 746 mmHg 75%
    13:00 +21°C° 0.2 mm 1 m/s 746 mmHg 73%
    14:00 +19°C° 1.1 mm 3 m/s 747 mmHg 79%
    15:00 +17°C° 1.1 mm 5 m/s 747 mmHg 84%
    16:00 +16°C° 1.1 mm 6 m/s 747 mmHg 90%
    17:00 +15°C° 0.3 mm 6 m/s 747 mmHg 91%
    18:00 +14°C° 0.3 mm 7 m/s 747 mmHg 91%
    19:00 +14°C° 0.3 mm 7 m/s 748 mmHg 92%
    20:00 +13°C° 0 mm 6 m/s 748 mmHg 92%
    21:00 +11°C° 0 mm 6 m/s 748 mmHg 91%
    22:00 +10°C° 0 mm 5 m/s 749 mmHg 91%
    23:00 +10°C° 0 mm 5 m/s 749 mmHg 90%

    24 Mai, Vineri

    Timp Temperatura Precipitaţii Vânt Presiune Umiditate
    00:00 +10°C° 0 mm 5 m/s 749 mmHg 88%
    01:00 +9°C° 0 mm 5 m/s 749 mmHg 86%
    02:00 +10°C° 0.1 mm 4 m/s 749 mmHg 87%
    03:00 +10°C° 0.1 mm 4 m/s 749 mmHg 87%
    04:00 +10°C° 0.1 mm 4 m/s 749 mmHg 88%
    05:00 +10°C° 0 mm 4 m/s 749 mmHg 86%
    06:00 +11°C° 0 mm 4 m/s 749 mmHg 84%
    07:00 +12°C° 0 mm 4 m/s 749 mmHg 82%
    08:00 +13°C° 0 mm 4 m/s 749 mmHg 76%
    09:00 +15°C° 0 mm 4 m/s 749 mmHg 70%
    10:00 +18°C° 0 mm 4 m/s 749 mmHg 64%
    11:00 +18°C° 0 mm 4 m/s 748 mmHg 61%
    12:00 +19°C° 0 mm 4 m/s 748 mmHg 59%
    13:00 +20°C° 0 mm 4 m/s 748 mmHg 56%
    14:00 +20°C° 0 mm 4 m/s 747 mmHg 57%
    15:00 +20°C° 0 mm 4 m/s 747 mmHg 58%
    16:00 +20°C° 0 mm 3 m/s 747 mmHg 59%
    17:00 +18°C° 0 mm 3 m/s 747 mmHg 65%
    18:00 +17°C° 0 mm 2 m/s 746 mmHg 70%
    19:00 +16°C° 0 mm 2 m/s 746 mmHg 76%
    20:00 +15°C° 0 mm 2 m/s 746 mmHg 79%
    21:00 +14°C° 0 mm 1 m/s 746 mmHg 82%
    22:00 +12°C° 0 mm 1 m/s 746 mmHg 85%
    23:00 +12°C° 0 mm 1 m/s 746 mmHg 87%

    25 Mai, Sâmbătă

    Timp Temperatura Precipitaţii Vânt Presiune Umiditate
    00:00 +12°C° 0 mm 1 m/s 746 mmHg 89%
    01:00 +11°C° 0 mm 1 m/s 746 mmHg 91%
    02:00 +11°C° 0 mm 1 m/s 746 mmHg 92%
    03:00 +11°C° 0 mm 1 m/s 746 mmHg 93%
    04:00 +11°C° 0 mm 1 m/s 746 mmHg 93%
    05:00 +12°C° 0 mm 1 m/s 746 mmHg 87%
    06:00 +14°C° 0 mm 1 m/s 746 mmHg 81%
    07:00 +16°C° 0 mm 1 m/s 747 mmHg 75%
    08:00 +18°C° 0 mm 1 m/s 747 mmHg 69%
    09:00 +20°C° 0 mm 1 m/s 747 mmHg 63%
    10:00 +21°C° 0 mm 1 m/s 747 mmHg 56%
    11:00 +21°C° 0 mm 1 m/s 746 mmHg 55%
    12:00 +20°C° 0 mm 2 m/s 746 mmHg 54%
    13:00 +21°C° 0 mm 2 m/s 746 mmHg 53%
    14:00 +21°C° 0 mm 2 m/s 746 mmHg 53%
    15:00 +21°C° 0 mm 2 m/s 746 mmHg 53%
    16:00 +21°C° 0 mm 3 m/s 746 mmHg 53%
    17:00 +20°C° 0 mm 2 m/s 746 mmHg 59%
    18:00 +18°C° 0 mm 2 m/s 746 mmHg 65%
    19:00 +18°C° 0 mm 1 m/s 746 mmHg 71%
    20:00 +16°C° 0 mm 1 m/s 747 mmHg 73%
    21:00 +14°C° 0 mm 1 m/s 747 mmHg 74%
    22:00 +13°C° 0 mm 1 m/s 747 mmHg 76%
    23:00 +13°C° 0 mm 1 m/s 747 mmHg 76%
    Arată mai mult